This demonstration page uses our WeatherBlox Daily Observations layout. Learn more.

Left ArrowRight Arrow

38.83388, -104.82136

Hourly Observations for March 6, 2018

Temp ( °F °C ) Dew Point ( °F °C ) Humidity (%) Winds ( mph kmh ) Pressure ( in mb ) Visibility ( mi km ) Precip ( " mm )
12:58 am 00:58 Clear 23 -4.8 -1 -18.6 33 33 NW 13 20 29.83 1010 10 16 0.00 0.00
1:58 am 01:58 Clear 24 -4.4 1 -17.2 36 36 NNW 10 17 29.81 1009 10 16 0.00 0.00
2:58 am 02:58 Clear 23 -4.8 1 -17.1 38 38 NW 10 17 29.82 1010 10 16 0.00 0.00
3:58 am 03:58 Clear 23 -4.9 0 -17.8 36 36 NW 12 19 29.86 1011 10 16 0.00 0.00
4:58 am 04:58 Clear 23 -5 -2 -19.1 32 32 NW 8 13 29.88 1012 10 16 0.00 0.00
5:58 am 05:58 Clear 23 -4.9 -5 -20.6 28 28 NW 9 15 29.92 1013 10 16 0.00 0.00
6:58 am 06:58 Sunny 23 -4.9 -2 -18.8 33 33 S 5 7 29.93 1013 10 16 0.00 0.00
7:58 am 07:58 Sunny 27 -2.7 0 -17.7 31 31 SE 8 13 29.94 1014 10 16 0.00 0.00
8:58 am 08:58 Sunny 29 -1.4 -2 -19 25 25 SE 10 17 29.93 1014 10 16 0.00 0.00
9:58 am 09:58 Sunny 33 0.5 -3 -19.4 21 21 SE 10 17 29.92 1013 10 16 0.00 0.00
10:58 am 10:58 Sunny 37 2.5 -4 -20.1 17 17 ESE 7 11 29.91 1013 10 16 0.00 0.00
11:58 am 11:58 Sunny 38 3.4 -5 -20.3 16 16 ESE 7 11 29.92 1013 10 16 0.00 0.00
12:58 pm 12:58 Sunny 41 4.9 -5 -20.4 14 14 SSE 7 11 29.89 1012 10 16 0.00 0.00
1:58 pm 13:58 Sunny 42 5.3 -5 -20.5 14 14 ESE 9 15 29.89 1012 10 16 0.00 0.00
2:58 pm 14:58 Sunny 41 4.9 -5 -20.7 14 14 Calm 29.91 1013 10 16 0.00 0.00
3:58 pm 15:58 Sunny 38 3.6 -5 -20.4 15 15 ESE 6 9 29.93 1013 10 16 0.00 0.00
4:58 pm 16:58 Sunny 37 2.9 -6 -21 15 15 S 7 11 29.95 1014 10 16 0.00 0.00
5:58 pm 17:58 Clear 36 2.2 -6 -20.9 16 16 S 12 19 29.98 1015 10 16 0.00 0.00
6:58 pm 18:58 Clear 35 1.6 -6 -21.2 17 17 S 12 19 29.98 1015 10 16 0.00 0.00
7:58 pm 19:58 Clear 33 0.7 -5 -20.5 19 19 S 15 24 30.00 1016 10 16 0.00 0.00
8:58 pm 20:58 Clear 31 -0.7 0 -18 26 26 S 15 24 30.00 1016 10 16 0.00 0.00
9:58 pm 21:58 Clear 31 -0.4 -4 -19.9 22 22 SSW 8 13 29.98 1015 10 16 0.00 0.00
10:58 pm 22:58 Clear 30 -0.9 -3 -19.5 23 23 SSW 14 22 29.94 1014 10 16 0.00 0.00
11:58 pm 23:58 Mostly Cloudy 28 -2.4 -1 -18.2 29 29 N 7 11 29.93 1014 10 16 0.00 0.00

Powered by AerisWeather